Temp
5 5 5 5 5 5 6 6 6 6 6 6 7 7 7 8 8 8 8 8 8 8 8 8 7 7 7 7 6 6 5 6 7 6 6 7 7 7 7 7 6 7 7 6 6
4 4 4 4 5 5 5 5 6 6 6 6 7 7 7 8 8 8 8 8 8 8 8 7 7 7 7 7 6 6 6 7 7 6 6 7 7 7 7 6 7 7 6 6 5
3 4 4 4 4 4 4 5 5 5 6 6 6 6 7 7 8 8 8 8 8 8 8 7 7 7 7 6 6 6 7 7 7 6 6 7 7 7 7 7 7 6 6 6 5
3 3 3 3 4 4 4 4 4 4 5 5 5 6 6 7 7 7 8 7 7 7 7 7 7 7 7 7 6 6 6 6 6 7 7 7 7 7 7 7 7 7 6 5 5
3 3 3 2 3 3 4 4 4 4 4 5 5 5 6 6 8 6 7 8 8 7 7 6 6 6 7 7 6 6 6 6 6 6 7 7 7 7 7 7 7 6 6 5 5
2 2 3 3 3 3 3 3 4 4 4 4 4 5 5 6 7 6 7 7 7 7 7 7 6 5 6 6 6 7 6 6 7 7 7 7 7 7 8 7 7 6 6 6 5
2 2 2 3 3 3 3 3 3 4 4 4 4 4 5 6 6 6 7 7 7 7 7 6 5 5 5 5 6 6 7 7 7 7 7 7 7 8 8 7 7 6 6 6 5
1 1 1 2 2 3 3 3 3 4 4 4 4 4 5 6 6 6 6 7 7 7 7 6 5 4 5 5 5 6 7 6 7 7 7 7 8 8 8 8 7 7 6 6 5
0 1 1 1 2 2 2 3 4 4 4 4 4 4 6 6 7 7 6 6 7 7 6 5 5 5 5 5 5 6 6 6 7 8 7 7 8 8 7 7 7 7 6 6 6
-0 -0 0 1 1 1 2 2 3 4 4 4 4 4 6 6 6 5 6 6 6 6 5 4 4 4 5 5 5 6 6 6 7 7 7 7 8 8 8 8 7 7 7 6 6
-1 -1 -1 -0 -0 0 1 1 2 3 3 4 4 5 4 5 6 6 5 5 5 5 6 5 4 5 6 6 5 6 6 6 7 7 6 7 7 8 8 8 8 7 7 6 6
-2 -2 -2 -1 -1 -1 -0 -0 1 1 4 3 4 5 5 4 4 4 5 5 5 5 5 4 4 6 5 5 5 5 5 6 7 7 6 7 8 8 8 8 8 8 7 6 6
-3 -2 -2 -2 -2 -2 -2 -2 -1 -1 0 5 5 5 5 4 6 5 3 4 5 5 5 5 6 6 5 5 4 4 5 6 7 7 7 7 7 7 7 7 8 8 8 7 6
-3 -3 -3 -3 -3 -3 -3 -3 -3 -3 -1 4 4 4 4 4 4 5 4 3 4 4 4 3 4 4 5 4 5 5 6 6 6 5 5 6 5 7 7 8 8 8 8 8 7
-4 -4 -4 -3 -4 -4 -3 -4 -4 -3 -4 2 2 2 2 3 3 3 4 4 3 3 4 4 4 4 3 5 4 5 6 5 5 5 5 6 5 7 7 8 9 8 8 8 7
-5 -4 -4 -4 -4 -5 -4 -4 -4 -4 -4 1 0 1 2 2 2 2 2 3 2 2 2 3 4 4 4 4 5 5 5 5 4 5 2 6 6 7 7 8 9 8 8 8 8
-5 -5 -5 -4 -5 -5 -5 -5 -5 -6 -0 -1 -1 0 1 1 2 2 1 2 2 1 1 2 3 3 3 4 4 4 4 3 3 2 2 6 6 7 8 8 8 8 8 8 8
-6 -6 -5 -5 -5 -5 -5 -6 -6 -4 -2 -2 -1 -0 0 0 1 1 1 1 1 1 2 2 2 3 3 4 4 5 4 3 3 1 3 6 5 7 8 8 8 9 8 8 8
-8 -7 -6 -6 -7 -7 -6 -6 -5 -5 -4 -3 -1 -1 -1 -0 -0 0 -0 0 0 1 1 2 2 4 4 5 5 4 3 5 5 3 3 6 6 7 7 9 9 9 9 8 8
-9 -9 -7 -8 -7 -8 -7 -6 -6 -5 -5 -4 -2 -2 -2 -1 -1 -0 -1 -1 -1 -0 -0 1 1 3 4 4 4 4 5 4 4 2 2 3 5 7 7 8 9 9 9 9 8
-11 -11 -9 -9 -9 -9 -8 -8 -7 -7 -6 -5 -4 -2 -3 -3 -3 -3 -1 -1 -1 -0 -1 -1 0 1 3 3 4 3 4 4 5 5 2 2 4 7 7 8 8 9 9 9 8
-11 -11 -10 -10 -10 -9 -9 -9 -8 -8 -7 -6 -5 -4 -3 -3 -4 -4 -4 -3 -2 -2 -2 -2 -1 -1 2 3 3 3 4 4 4 3 5 5 5 7 7 7 7 8 8 8 8
-11 -11 -10 -10 -10 -10 -10 -9 -9 -8 -8 -8 -7 -6 -5 -4 -6 -4 -5 -3 -3 -2 -2 -2 -2 -2 0 2 3 3 3 3 4 5 5 4 5 7 7 8 7 8 8 8 8
-11 -11 -10 -10 -10 -10 -10 -10 -10 -10 -8 -8 -8 -7 -6 -5 -5 -5 -5 -4 -3 -3 -3 -4 -3 -3 -2 -1 1 0 3 4 4 4 4 5 5 6 7 7 7 8 8 8 8
-11 -10 -10 -9 -10 -9 -9 -9 -8 -10 -9 -8 -8 -7 -7 -6 -6 -6 -6 -5 -3 -4 -4 -4 -4 -2 -2 -2 -1 1 1 3 4 5 4 5 5 6 7 7 7 7 7 7 7
-11 -11 -10 -10 -9 -8 -9 -9 -9 -9 -9 -9 -8 -7 -7 -7 -7 -6 -6 -6 -5 -5 -5 -4 -4 -3 -2 -1 -0 -0 2 2 4 4 5 5 4 6 6 7 7 7 7 7 7
-11 -10 -11 -10 -10 -9 -9 -8 -8 -8 -9 -8 -8 -8 -7 -6 -7 -7 -7 -7 -7 -6 -6 -6 -4 -4 -3 -2 -2 -1 2 3 3 4 5 5 5 5 6 7 7 7 7 7 7
Height
3118 3118 3116 3116 3115 3117 3117 3115 3114 3113 3113 3113 3113 3113 3113 3114 3115 3116 3115 3116 3116 3115 3114 3113 3111 3112 3114 3113 3114 3114 3115 3112 3112 3113 3112 3111 3109 3107 3106 3104 3102 3100 3097 3094 3091
3112 3111 3112 3111 3111 3110 3110 3111 3108 3108 3107 3107 3108 3108 3108 3109 3110 3111 3112 3111 3111 3111 3111 3110 3110 3110 3111 3111 3111 3111 3111 3110 3111 3110 3109 3108 3106 3105 3103 3100 3098 3096 3094 3090 3087
3105 3106 3106 3106 3106 3105 3105 3105 3103 3102 3101 3101 3102 3102 3103 3106 3106 3105 3106 3106 3106 3106 3107 3107 3107 3108 3108 3108 3108 3108 3109 3110 3108 3108 3106 3104 3103 3102 3099 3097 3094 3093 3090 3087 3084
3100 3098 3098 3100 3101 3100 3099 3099 3098 3096 3096 3094 3094 3097 3097 3100 3104 3101 3102 3102 3103 3103 3104 3104 3105 3105 3106 3105 3105 3105 3106 3106 3105 3105 3104 3102 3100 3099 3096 3095 3090 3089 3086 3084 3081
3093 3093 3092 3092 3093 3093 3093 3092 3092 3091 3090 3089 3088 3090 3091 3093 3097 3095 3097 3098 3099 3101 3102 3101 3102 3102 3102 3102 3101 3100 3103 3102 3102 3101 3101 3099 3097 3095 3092 3092 3088 3086 3084 3081 3078
3087 3086 3086 3086 3085 3085 3086 3086 3085 3085 3084 3084 3083 3084 3084 3086 3089 3089 3091 3092 3093 3095 3097 3097 3098 3099 3098 3098 3098 3097 3097 3098 3097 3097 3097 3095 3094 3092 3091 3090 3087 3083 3081 3079 3076
3081 3081 3080 3080 3080 3079 3079 3079 3079 3077 3077 3079 3077 3076 3074 3084 3081 3083 3085 3086 3087 3089 3091 3092 3093 3094 3094 3095 3095 3093 3094 3094 3095 3093 3093 3092 3089 3089 3089 3088 3085 3082 3080 3078 3075
3075 3076 3076 3073 3073 3073 3072 3073 3071 3071 3071 3071 3070 3069 3066 3076 3075 3077 3076 3079 3080 3083 3086 3087 3088 3088 3089 3092 3091 3091 3091 3091 3092 3091 3090 3089 3084 3086 3085 3085 3083 3081 3078 3076 3073
3070 3070 3071 3069 3067 3066 3066 3066 3064 3064 3064 3063 3064 3065 3065 3067 3066 3067 3069 3072 3073 3077 3079 3081 3082 3084 3085 3087 3089 3087 3086 3088 3089 3089 3088 3086 3082 3083 3082 3082 3081 3079 3077 3074 3072
3063 3064 3064 3063 3063 3060 3060 3060 3058 3057 3057 3057 3057 3063 3063 3063 3063 3063 3063 3064 3066 3070 3073 3075 3076 3077 3079 3081 3079 3083 3084 3085 3085 3086 3084 3082 3079 3080 3079 3078 3078 3077 3076 3073 3071
3057 3058 3059 3058 3057 3056 3056 3056 3056 3051 3050 3051 3050 3051 3055 3059 3060 3058 3060 3061 3062 3064 3065 3067 3068 3066 3070 3076 3078 3082 3082 3081 3082 3083 3082 3079 3076 3076 3075 3075 3076 3075 3075 3073 3069
3051 3052 3053 3053 3053 3053 3050 3051 3050 3045 3040 3044 3042 3043 3047 3051 3049 3053 3056 3058 3058 3059 3061 3062 3057 3065 3070 3075 3076 3077 3079 3079 3081 3080 3079 3076 3072 3072 3072 3072 3073 3073 3073 3071 3069
3044 3046 3048 3048 3048 3050 3047 3049 3045 3041 3035 3036 3038 3038 3039 3038 3039 3047 3049 3051 3052 3052 3054 3053 3057 3061 3064 3068 3071 3073 3074 3076 3078 3078 3076 3073 3068 3068 3068 3068 3069 3070 3071 3071 3070
3038 3039 3042 3043 3046 3044 3045 3045 3042 3038 3034 3032 3029 3028 3031 3028 3031 3034 3039 3045 3045 3045 3051 3050 3054 3057 3058 3061 3066 3067 3071 3074 3075 3077 3075 3074 3066 3061 3063 3063 3062 3064 3066 3069 3070
3031 3032 3035 3036 3039 3040 3043 3042 3041 3041 3038 3031 3027 3026 3027 3028 3030 3028 3028 3033 3035 3040 3046 3044 3047 3051 3054 3058 3061 3062 3068 3071 3072 3072 3072 3070 3072 3054 3058 3056 3058 3061 3062 3065 3068
3024 3025 3027 3029 3033 3035 3038 3039 3041 3044 3032 3026 3023 3023 3025 3025 3027 3026 3026 3027 3031 3037 3039 3042 3047 3047 3050 3054 3059 3061 3065 3067 3068 3068 3066 3065 3068 3051 3054 3054 3054 3057 3058 3060 3064
3016 3018 3019 3022 3028 3030 3033 3036 3041 3035 3025 3025 3023 3023 3024 3024 3026 3026 3025 3027 3030 3033 3033 3038 3038 3042 3047 3050 3054 3058 3062 3064 3065 3065 3060 3059 3061 3052 3052 3053 3054 3054 3055 3057 3060
3007 3009 3011 3017 3021 3024 3029 3032 3031 3020 3020 3021 3021 3022 3022 3024 3025 3026 3025 3027 3029 3031 3033 3033 3035 3036 3039 3043 3048 3048 3053 3056 3060 3059 3054 3055 3051 3047 3049 3050 3052 3052 3053 3055 3058
2998 3000 3004 3012 3014 3017 3023 3022 3017 3016 3018 3018 3021 3021 3022 3023 3024 3025 3026 3028 3028 3030 3032 3030 3028 3032 3033 3037 3043 3044 3044 3052 3052 3052 3053 3049 3046 3045 3045 3046 3048 3049 3051 3053 3055
2992 2994 2998 3004 3006 3011 3014 3009 3011 3014 3014 3016 3020 3019 3020 3021 3023 3024 3026 3028 3027 3027 3027 3028 3026 3029 3030 3032 3033 3036 3043 3047 3048 3050 3051 3043 3042 3041 3043 3043 3044 3047 3050 3052 3053
2988 2988 2992 2997 3000 3003 2999 3000 3004 3009 3012 3016 3016 3017 3018 3020 3021 3023 3026 3027 3026 3026 3026 3026 3026 3025 3027 3026 3029 3032 3034 3038 3040 3038 3037 3040 3035 3038 3040 3042 3043 3045 3049 3051 3051
2983 2983 2988 2991 2994 2991 2989 2994 2998 3004 3007 3011 3013 3015 3017 3017 3020 3023 3023 3024 3024 3023 3024 3025 3022 3020 3020 3024 3026 3029 3029 3031 3032 3031 3030 3029 3027 3034 3039 3040 3040 3043 3046 3048 3050
2976 2978 2983 2986 2982 2981 2986 2990 2994 2998 3002 3006 3008 3010 3013 3014 3018 3017 3016 3018 3020 3022 3023 3024 3022 3019 3016 3019 3021 3022 3024 3027 3027 3028 3020 3025 3023 3029 3035 3037 3038 3039 3043 3045 3047
2972 2973 2974 2976 2975 2979 2983 2986 2989 2992 2996 3001 3003 3006 3008 3010 3012 3013 3014 3017 3018 3019 3019 3020 3018 3021 3020 3020 3020 3017 3018 3021 3023 3020 3017 3010 3019 3025 3030 3034 3035 3035 3037 3040 3043
2962 2962 2966 2965 2967 2971 2978 2979 2983 2988 2992 2996 2997 3001 3005 3005 3008 3008 3010 3012 3012 3014 3015 3016 3012 3014 3014 3015 3013 3008 3010 3012 3012 3011 3012 3011 3013 3019 3024 3028 3031 3033 3034 3035 3038
2951 2953 2958 2960 2965 2967 2970 2971 2979 2985 2990 2990 2993 2998 3001 3000 3003 3005 3006 3008 3007 3010 3011 3010 3007 3007 3003 3007 3005 3001 3002 3006 3004 3003 3003 3003 3006 3013 3018 3022 3024 3027 3029 3029 3032
2942 2946 2953 2952 2958 2962 2961 2968 2973 2982 2983 2987 2991 2994 2994 2995 2999 2998 2997 2999 3002 3004 3006 3007 3005 3004 2995 3000 2997 2994 2987 2989 2995 2996 2998 2997 3002 3007 3010 3013 3016 3019 3021 3023 3025
Wind_Speed
33 32 31 30 29 30 31 28 28 26 25 24 24 25 24 21 20 20 20 17 16 17 17 17 13 13 11 10 9 11 11 11 11 10 20 14 20 18 18 19 17 24 23 23 19
33 33 33 32 31 30 31 32 29 29 28 26 26 26 25 24 22 20 22 19 17 17 16 14 15 14 11 13 13 14 12 12 7 14 17 15 19 18 21 22 25 28 23 19 20
30 31 32 32 31 31 31 32 32 30 30 29 29 27 26 25 23 21 19 20 19 18 14 12 14 13 12 13 16 16 14 11 14 15 17 16 15 20 23 28 26 26 24 22 25
34 34 31 30 30 30 31 33 33 32 31 31 30 29 28 25 17 9 9 11 11 13 14 12 14 16 15 15 17 21 18 18 21 18 18 17 21 24 26 28 30 30 27 23 25
33 32 32 34 34 31 30 30 32 33 32 32 31 29 30 29 24 23 21 22 22 21 19 18 16 17 18 17 19 22 20 24 26 24 21 22 24 28 27 26 25 25 22 22 18
33 32 32 33 31 32 36 33 30 31 32 32 31 30 32 31 27 23 22 23 22 24 23 25 20 18 19 19 20 22 21 26 27 26 25 28 27 30 17 16 20 19 20 16 11
33 33 31 33 33 33 33 34 38 35 33 32 33 31 33 23 30 25 22 21 19 21 21 24 21 21 19 17 21 21 24 27 26 20 14 14 20 20 16 14 17 16 16 12 12
33 34 33 32 32 33 33 33 36 39 35 34 34 35 34 21 27 26 27 26 26 25 20 20 21 25 24 20 16 19 20 22 7 4 10 16 23 11 14 14 13 13 14 15 14
34 34 33 33 32 32 32 32 35 38 37 36 34 33 31 25 25 25 28 29 28 25 22 22 25 24 26 23 22 22 21 19 14 11 11 16 20 13 16 16 15 14 14 14 16
33 34 32 33 32 32 31 30 33 35 36 36 36 30 26 26 23 20 20 25 30 30 28 26 28 27 29 27 24 21 19 20 19 12 12 16 19 12 15 16 15 12 11 12 14
34 33 32 31 30 31 29 25 29 30 32 32 33 34 25 22 24 18 23 17 18 23 31 33 33 38 35 31 27 20 13 14 17 15 17 16 19 15 19 18 11 7 7 9 11
34 32 30 29 28 28 26 24 25 28 34 26 31 34 30 28 35 17 18 21 25 24 24 33 38 35 32 28 29 27 24 21 17 14 14 16 18 15 17 18 14 9 7 7 7
34 33 30 27 27 25 23 20 21 25 32 32 27 29 27 30 34 29 26 26 25 26 27 33 31 33 36 32 30 30 31 23 19 15 17 14 21 18 20 21 21 18 9 3 2
35 33 30 27 25 22 19 17 19 21 20 20 15 8 11 20 26 31 36 37 31 29 26 25 31 26 16 29 34 33 30 22 22 21 12 13 11 27 24 26 24 20 12 8 3
34 33 28 27 23 20 15 14 13 13 6 6 4 2 7 7 1 5 13 37 45 40 31 21 21 28 37 29 23 35 29 24 19 18 22 25 11 24 29 29 18 12 9 9 6
33 32 28 27 23 19 13 12 11 5 9 1 1 1 4 1 5 7 5 15 32 40 37 34 27 18 19 28 16 17 22 19 18 18 8 21 14 24 11 9 8 13 11 12 11
31 31 30 27 20 19 13 14 6 10 1 4 5 3 2 2 4 11 9 6 16 23 37 31 36 31 22 17 22 31 24 3 3 4 5 8 14 28 20 20 17 10 5 13 14
28 30 31 25 21 21 18 17 14 9 13 7 6 0 2 4 4 6 6 6 14 16 4 26 21 37 30 31 17 27 33 12 6 4 4 12 9 13 14 10 12 12 9 12 15
26 28 29 19 20 22 24 27 14 9 11 7 19 10 6 5 4 3 5 2 4 20 10 6 13 14 19 16 35 19 32 32 17 1 1 7 12 18 15 16 15 14 15 15 15
24 25 26 19 22 22 29 40 26 15 8 6 7 6 4 5 6 8 6 6 2 3 10 18 14 18 8 18 23 39 16 15 18 5 5 5 11 13 5 11 11 10 13 11 9
20 21 21 20 24 26 39 37 33 26 19 15 10 20 17 19 19 18 10 9 5 5 8 7 18 21 15 11 21 29 37 28 15 21 6 2 7 18 19 12 12 12 11 11 7
22 24 18 21 27 33 40 35 35 21 19 28 28 26 24 33 33 26 13 10 10 19 22 18 8 8 32 39 12 15 30 40 30 7 13 23 22 17 11 9 8 18 14 12 8
27 27 22 21 34 39 32 30 32 33 29 22 19 22 27 32 22 19 11 10 16 17 9 13 5 11 11 26 31 33 30 18 37 30 29 16 9 15 23 19 15 18 17 13 11
26 25 29 30 35 35 35 33 29 24 23 23 23 24 23 20 19 11 10 7 9 10 18 20 19 16 11 17 22 27 28 34 28 26 29 40 26 26 21 20 17 15 18 17 15
35 34 25 26 40 44 32 30 27 27 24 19 25 34 28 28 28 30 30 33 28 21 16 13 21 25 29 28 29 37 35 26 38 40 29 27 32 31 29 29 21 22 19 14 19
40 42 38 33 32 35 40 41 32 21 26 27 28 23 20 27 28 26 19 13 9 8 12 16 17 22 32 31 23 34 36 37 34 38 39 34 28 29 20 27 30 32 27 24 22
43 40 36 38 41 39 44 39 39 30 32 29 27 24 26 22 13 20 16 18 23 14 15 18 15 14 25 28 31 24 40 45 40 38 38 36 29 19 37 40 36 31 34 33 28
Wind_Direction
277 277 276 276 276 279 280 277 279 279 279 279 280 281 280 277 277 276 281 279 279 283 284 274 259 256 257 251 236 236 245 249 244 310 324 314 319 296 300 295 299 317 315 306 300
275 276 277 277 276 275 275 276 274 275 277 278 277 279 282 279 276 276 275 276 274 275 282 265 250 254 247 246 238 221 251 243 254 307 319 310 316 306 303 309 317 324 321 302 298
270 273 274 276 276 277 276 275 274 271 271 272 274 275 278 281 284 284 278 271 266 263 264 247 250 254 246 239 240 237 255 258 267 289 301 307 310 303 309 314 320 319 310 304 300
270 268 268 270 272 274 274 274 274 272 271 269 270 271 273 273 278 266 266 267 272 275 250 239 257 258 247 243 241 250 251 260 267 271 287 292 297 302 306 324 315 318 314 315 314
270 271 270 266 267 268 271 271 272 273 273 271 271 271 269 267 265 267 266 265 269 266 257 255 255 265 256 252 247 252 254 249 259 272 274 286 294 305 309 317 309 316 317 323 315
271 271 271 272 271 271 268 270 273 272 272 273 272 270 268 267 269 265 258 257 256 258 256 257 260 257 250 246 248 251 255 255 258 273 273 278 290 297 323 313 304 317 326 337 326
272 272 272 272 273 274 273 268 270 272 271 274 274 272 267 272 267 260 254 254 248 253 260 253 249 242 244 251 246 251 257 259 273 274 277 284 288 296 308 303 302 319 327 329 335
274 274 275 272 272 273 273 270 267 271 274 273 271 273 276 273 264 264 250 247 244 243 246 243 243 243 241 235 236 245 259 273 247 233 288 294 289 308 301 304 310 319 321 324 333
274 274 275 275 274 274 274 272 269 270 274 274 272 274 283 282 269 258 248 243 240 238 236 232 244 238 237 236 239 245 249 259 259 254 285 304 298 309 296 299 306 318 313 325 338
274 276 277 276 278 277 276 277 274 269 272 274 271 275 271 266 269 269 251 235 236 236 232 228 235 233 232 227 225 235 245 258 257 246 283 298 291 300 292 296 298 311 333 327 341
272 274 278 277 278 277 277 283 281 279 272 270 267 267 265 262 261 272 244 231 243 236 229 232 226 233 238 237 241 247 250 258 237 257 293 290 293 287 294 291 308 328 329 340 342
271 273 275 278 280 281 282 289 286 285 278 268 277 267 269 266 256 250 233 240 243 243 233 226 232 243 245 240 237 245 253 252 249 264 294 291 280 298 293 292 293 309 288 313 330
267 270 275 275 277 279 285 295 293 295 297 277 277 274 276 254 259 236 238 243 240 243 240 236 244 246 243 240 232 237 244 246 250 258 288 299 288 294 294 298 292 286 276 269 321
263 265 269 272 274 276 281 288 298 308 306 296 286 272 259 263 254 258 228 231 236 240 245 249 245 237 229 239 240 236 243 250 253 271 282 312 291 291 293 291 295 270 240 218 231
261 262 264 267 268 271 273 275 283 311 320 299 292 273 275 294 282 222 236 223 232 235 232 235 245 236 238 249 248 239 247 247 258 267 281 281 268 281 298 293 275 259 264 230 214
259 261 261 264 263 254 255 247 251 273 246 194 258 133 275 320 212 244 302 225 230 230 237 247 249 254 254 249 242 232 239 253 256 267 248 259 240 291 300 350 307 257 264 208 208
255 258 259 258 253 243 228 225 220 225 273 182 189 163 223 301 232 256 273 283 214 208 228 239 245 248 250 245 240 240 237 249 243 197 225 218 242 255 275 294 300 273 203 204 204
250 253 256 254 245 233 212 204 220 259 235 206 187 352 341 327 281 293 284 288 225 220 260 230 250 246 237 232 234 233 222 197 202 202 219 203 235 255 272 275 281 260 218 191 199
245 249 252 247 232 221 209 208 229 249 250 265 242 277 263 240 340 13 33 122 196 226 237 253 241 247 242 241 234 222 218 227 243 280 281 227 247 266 272 247 271 249 224 205 216
244 245 245 229 225 219 215 223 228 223 220 219 229 246 236 233 326 349 11 67 136 155 247 244 287 259 291 243 237 227 228 202 216 189 229 245 231 233 228 240 246 247 222 215 231
241 247 240 221 220 218 222 225 234 231 227 239 224 240 264 292 304 314 280 299 262 184 20 321 245 247 241 245 244 225 228 230 232 227 190 200 236 247 279 255 227 218 225 229 258
226 235 232 217 214 223 229 232 230 235 240 242 242 237 247 276 281 281 273 241 264 288 310 314 295 282 257 246 244 251 243 229 228 223 230 241 237 251 282 221 235 217 220 223 242
225 228 228 219 226 227 232 242 247 245 246 251 249 256 259 265 271 273 275 276 263 276 291 298 283 332 296 262 253 255 253 263 238 240 245 228 246 255 251 246 267 230 217 216 212
220 225 221 228 238 241 242 240 242 254 259 230 242 249 254 249 252 236 224 242 279 263 292 287 271 265 274 279 274 291 266 251 245 251 246 246 249 250 250 261 256 222 209 219 221
219 226 233 230 233 238 239 245 251 241 248 251 245 246 243 252 253 250 262 281 280 280 274 279 262 265 270 294 275 258 259 262 245 249 241 255 250 250 250 258 256 226 224 229 234
219 223 225 226 236 230 243 247 242 244 238 243 246 252 253 254 261 273 279 289 275 233 272 281 279 267 272 300 271 265 244 251 251 246 249 250 254 244 252 253 265 253 246 249 254
223 230 231 239 234 236 241 241 247 253 245 248 255 256 259 265 285 287 259 251 248 241 250 272 282 281 271 289 309 267 234 234 240 246 246 249 260 252 250 254 255 260 250 249 257